Theta_e
302 300 299 297 295 297 295 294 294 293 292 293 293 293 293 294 292 293 294 293 292 292
296 298 297 297 297 296 295 292 292 292 292 292 291 291 291 291 290 292 290 290 290 289
291 293 292 294 293 293 292 292 292 291 291 290 291 291 289 288 288 287 287 287 288 286
285 288 291 289 290 291 293 292 292 291 291 289 288 288 287 287 286 285 285 286 286 285
283 284 285 286 287 289 288 291 291 290 290 288 287 287 286 285 286 285 284 285 284 285
281 282 282 284 285 287 287 288 288 289 288 287 287 287 286 286 286 285 285 285 284 284
280 281 282 283 284 285 287 287 288 289 289 287 287 286 286 287 285 285 285 285 286 286
281 282 282 283 284 285 285 286 286 286 288 289 288 288 288 288 287 287 287 288 288 288
278 280 281 282 283 284 284 284 285 285 285 285 286 290 291 289 287 287 287 286 286 286
275 277 279 281 282 283 283 284 284 285 285 285 287 290 290 289 286 285 284 284 284 285
272 275 277 278 279 281 283 283 284 285 286 287 288 290 289 288 286 285 284 284 285 285
271 273 274 276 277 279 281 281 281 282 284 284 287 289 288 285 284 284 283 284 285 286
271 273 273 274 276 278 280 281 281 281 282 284 283 289 287 285 284 283 283 284 284 286
270 271 272 274 276 276 277 279 279 279 280 281 282 284 287 286 285 284 283 283 283 285
Wind_Speed
14 10 11 13 12 11 10 9 11 8 8 9 10 9 8 7 5 6 8 9 7 5
5 12 11 12 12 10 10 9 10 9 9 9 9 8 8 5 7 8 5 6 7 5
4 6 11 11 11 12 11 13 12 11 10 9 9 9 8 8 5 7 4 4 9 5
9 6 9 11 9 10 12 13 11 11 12 10 10 9 10 8 9 9 9 7 7 7
13 10 8 9 9 10 8 10 11 10 11 10 10 9 11 11 9 9 9 8 9 8
13 13 11 10 9 8 8 10 10 9 10 10 10 10 10 10 10 10 8 8 8 9
12 12 9 10 8 7 7 8 8 9 10 11 12 10 11 11 10 10 7 6 6 7
13 11 11 11 8 8 8 8 10 10 10 10 11 8 11 9 9 9 7 6 5 5
15 12 11 11 9 9 9 8 8 9 10 10 7 16 16 11 8 8 7 7 7 8
16 14 12 9 9 8 8 9 9 9 10 10 11 18 17 16 8 7 6 8 8 7
16 14 13 11 10 8 7 8 8 9 10 9 9 18 17 15 8 7 8 9 9 9
15 14 13 12 11 9 6 7 7 6 7 7 6 17 15 11 8 8 9 8 8 9
14 13 12 11 10 8 6 6 5 6 6 9 6 10 17 12 6 7 6 6 6 9
14 12 12 11 8 8 6 5 5 6 6 6 5 4 11 10 6 6 6 6 6 6
Wind_Direction
166 164 166 168 160 159 170 160 156 156 142 151 156 140 149 157 143 135 152 146 150 134
134 153 160 158 164 154 153 146 141 145 137 138 135 130 124 145 144 149 130 138 137 138
39 117 132 136 146 154 148 147 153 147 143 136 130 142 131 119 122 121 99 118 132 114
20 47 121 121 121 127 145 139 147 142 145 132 130 134 129 120 128 129 128 126 118 116
23 20 53 85 106 108 113 129 125 138 131 126 123 124 125 125 125 125 123 117 115 117
21 22 29 41 67 88 101 107 113 121 126 122 125 118 110 117 117 116 122 127 127 130
14 26 19 42 54 73 106 115 129 144 133 130 131 131 125 120 110 112 120 120 130 147
21 25 25 38 42 72 94 113 129 131 135 130 143 141 138 137 143 136 143 150 145 171
12 16 24 33 41 57 78 94 106 117 122 129 140 158 154 143 143 136 149 148 157 166
8 14 17 24 43 58 77 96 102 112 125 137 143 150 154 144 130 138 141 145 154 153
2 10 11 18 27 39 62 88 102 103 107 110 132 137 136 135 129 130 150 161 160 152
356 4 5 13 14 15 38 58 64 72 86 89 93 146 139 126 132 140 145 145 146 144
356 358 4 359 6 6 22 40 72 70 67 80 55 124 138 140 133 136 140 146 151 164
354 355 358 353 3 5 14 37 62 79 75 74 75 58 131 141 150 147 145 157 166 177